User: anonymous   Login
Location: Unspecified
(0.0000°N, 0.0000°E)
Time: 21:43:05
(UTC+00:00)
Language:

OBJECT C - Orbit

View from above orbital plane
View from above orbital plane
View from above satellite
View from above satellite

Ground track
Ground track

The orbit data is extracted from the following two-line orbital elements,

1 42827U 17042C   18265.76726915 +.00000141 +00000-0 +19752-4 0  9996
2 42827 097.5866 164.3948 0013860 229.4221 130.5792 14.90888592064833
Epoch (UTC): 22 September 2018 18:24:52
Eccentricity: 0.0013860
inclination: 97.5866°
perigee height: 585 km
apogee height: 605 km
right ascension of ascending node: 164.3948°
argument of perigee: 229.4221°
revolutions per day: 14.90888592
mean anomaly at epoch: 130.5792°
orbit number at epoch: 6483

The dashed part of the orbit path shows where the satellite is in the earth's shadow,  

DLR